Strait of Georgia - north of Nanaimo: Past 24 Hour Conditions

 

Saturna Island

06:00 AM PST 23 November 2014
This table is a summary of hourly weather conditions for the past 24 hours.
Date / Time
(PST)
Wind(knots) Conditions Visibility(km) Pressure(kPa) Air tempC) Relative humidity(%) Dew pointC)
23 November 2014
6:00 SSW 30 gust 35 N/A N/A 101.4 9 86 6
5:00 SSW 27 N/A N/A 101.4 8 87 6
4:00 S 22 gust 27 N/A N/A 101.5 8 86 6
3:00 SSW 26 N/A N/A 101.7 8 87 6
2:00 S 18 N/A N/A 101.8 9 86 7
1:00 SW 16 N/A N/A 101.8 9 86 7
0:00 SW 19 N/A N/A 101.8 9 83 6
22 November 2014
23:00 WSW 11 N/A N/A 101.8 8 82 6
22:00 WSW 8 N/A N/A 101.7 8 80 5
21:00 WSW 11 N/A N/A 101.6 8 81 5
20:00 WSW 6 N/A N/A 101.6 8 78 4
19:00 WSW 4 N/A N/A 101.5 8 78 4
18:00 W 4 N/A N/A 101.4 8 73 3
17:00 W 3 N/A N/A 101.4 8 81 5
16:00 NNW 1 N/A N/A 101.3 9 77 5
15:00 WSW 1 N/A N/A 101.2 9 74 5
14:00 WSW 4 N/A N/A 101.0 11 65 5
13:00 WSW 6 N/A N/A 100.9 11 69 5
12:00 W 8 N/A N/A 100.8 10 68 5
11:00 WSW 6 N/A N/A 100.7 10 72 5
10:00 WSW 9 N/A N/A 100.6 9 77 5
9:00 WSW 12 N/A N/A 100.5 8 83 6
8:00 WSW 11 gust 16 N/A N/A 100.4 8 83 5
7:00 WSW 11 N/A N/A 100.3 8 86 5
6:00 WSW 12 gust 17 N/A N/A 100.3 8 88 6
 
Map of Pacific - Georgia Basin marine weather areas Tsawwassen Ferry Terminal Sentry Shoal - 46131 Halibut Bank - 46146 La Perouse Bank - 46206 Discovery Island Esquimalt Harbour Kelp Reefs Malahat Race Rocks Lightstation Saturna Island Sheringham Point University of Victoria Victoria Gonzales Victoria Int'l Airport Ballenas Islands Campbell River Airport Comox Airport Entrance Island Fanny Island Nanaimo Airport Sisters Islets Estevan Point Tofino Airport Grief Point Powell River Airport Sechelt Point Atkinson Sand Heads Lightstation Vancouver Harbour Vancouver Int'l Airport West Vancouver Port Alberni Howe Sound - Pam Rocks Squamish Airport